Farrell Flat Airport

Jump to: basic info | weather | frequencies | runways | comments

Related pages: nearby airports | nearby navaids | notams | map

Basic information (top)

Codes: YFFT
Location: lon -33.833302, lat 138.766998
Status: small_airport

Weather (top)

Current conditions for Adelaide International Airport 68nm (125km) S (rec'd 2015/04/28 19:00Z):

YPAD 281900Z 11007KT CAVOK 10/06 Q1029 NOSIG

Airport forecast for Adelaide International Airport 68nm (125km) S (rec'd 2015/04/28 18:42Z):

TAF TAF YPAD 281738Z 2818/2924 13008KT 9999 SCT045 
     FM290100 26008KT 9999 SCT045 
     FM290600 13008KT 9999 FEW045 
      RMK

Frequencies (top)

Verify before use: may be inaccurate or out of date.

CTAF: 122.4 MHz (CTAF)
MISC: 114.2 MHz (MISC)
MISC: 119.8 MHz (MISC)
MISC: 121.3 MHz (MISC)

Runways (top)

03/21: 1,443 ft (440 m) — grass — not lighted

14/32: 2,486 ft (758 m) — grass — not lighted

Latest comments (top)

No comments yet for Farrell Flat Airport

More... (top)

See also NOTAMs and nearby airports and navaids, or visit the Farrell Flat Airport page at the main OurAirports website..